Time,TemperatureF,DewpointF,PressureIn,WindDirection,WindDirectionDegrees,WindSpeedMPH,WindSpeedGustMPH,Humidity,HourlyPrecipIn,Conditions,Clouds,dailyrainin,SoftwareType,DateUTC
2013-04-27 00:10:00,48.8,22.0,30.23,West,261,7.0,-999.0,35,-99.99,,,0.00,weatherlink.com 1.10,2013-04-27 06:10:00,
2013-04-27 00:25:00,48.9,22.0,30.23,West,274,9.0,-999.0,35,-99.99,,,0.00,weatherlink.com 1.10,2013-04-27 06:25:00,
2013-04-27 00:40:00,48.3,24.0,30.23,NNE,16,3.0,-999.0,38,-99.99,,,0.00,weatherlink.com 1.10,2013-04-27 06:40:00,
2013-04-27 00:55:00,46.8,23.0,30.23,North,349,4.0,-999.0,40,-99.99,,,0.00,weatherlink.com 1.10,2013-04-27 06:55:00,
2013-04-27 01:10:00,46.0,23.0,30.23,WNW,291,0.0,-999.0,41,-99.99,,,0.00,weatherlink.com 1.10,2013-04-27 07:10:00,
2013-04-27 01:25:00,45.9,23.0,30.23,NNW,341,3.0,-999.0,41,-99.99,,,0.00,weatherlink.com 1.10,2013-04-27 07:25:00,
2013-04-27 01:40:00,45.2,24.0,30.22,WNW,289,3.0,-999.0,43,-99.99,,,0.00,weatherlink.com 1.10,2013-04-27 07:40:00,
2013-04-27 01:55:00,45.2,23.0,30.21,West,273,1.0,-999.0,42,-99.99,,,0.00,weatherlink.com 1.10,2013-04-27 07:55:00,
2013-04-27 02:10:00,44.8,22.0,30.21,West,271,0.0,-999.0,40,-99.99,,,0.00,weatherlink.com 1.10,2013-04-27 08:10:00,
2013-04-27 02:25:00,50.6,18.0,30.20,NW,309,11.0,-999.0,28,-99.99,,,0.00,weatherlink.com 1.10,2013-04-27 08:25:00,
2013-04-27 02:40:00,51.9,20.0,30.20,West,280,2.0,-999.0,29,-99.99,,,0.00,weatherlink.com 1.10,2013-04-27 08:40:00,
2013-04-27 02:55:00,49.7,18.0,30.20,WNW,282,4.0,-999.0,29,-99.99,,,0.00,weatherlink.com 1.10,2013-04-27 08:55:00,
2013-04-27 03:10:00,49.3,17.0,30.20,WNW,288,1.0,-999.0,28,-99.99,,,0.00,weatherlink.com 1.10,2013-04-27 09:10:00,
2013-04-27 03:25:00,48.3,19.0,30.20,WNW,284,1.0,-999.0,31,-99.99,,,0.00,weatherlink.com 1.10,2013-04-27 09:25:00,
2013-04-27 03:40:00,46.7,18.0,30.19,WNW,284,2.0,-999.0,32,-99.99,,,0.00,weatherlink.com 1.10,2013-04-27 09:40:00,
2013-04-27 03:55:00,46.7,17.0,30.19,West,259,5.0,-999.0,31,-99.99,,,0.00,weatherlink.com 1.10,2013-04-27 09:55:00,
2013-04-27 04:10:00,52.2,15.0,30.19,West,276,5.0,-999.0,23,-99.99,,,0.00,weatherlink.com 1.10,2013-04-27 10:10:00,
2013-04-27 04:25:00,50.3,18.0,30.19,WSW,253,4.0,-999.0,28,-99.99,,,0.00,weatherlink.com 1.10,2013-04-27 10:25:00,
2013-04-27 04:40:00,47.9,16.0,30.19,East,86,1.0,-999.0,28,-99.99,,,0.00,weatherlink.com 1.10,2013-04-27 10:40:00,
2013-04-27 04:55:00,46.7,20.0,30.19,NE,38,4.0,-999.0,34,-99.99,,,0.00,weatherlink.com 1.10,2013-04-27 10:55:00,
2013-04-27 05:10:00,45.8,20.0,30.19,NE,36,4.0,-999.0,36,-99.99,,,0.00,weatherlink.com 1.10,2013-04-27 11:10:00,
2013-04-27 05:25:00,44.9,21.0,30.19,NE,40,2.0,-999.0,38,-99.99,,,0.00,weatherlink.com 1.10,2013-04-27 11:25:00,
2013-04-27 05:40:00,43.5,21.0,30.19,SW,224,1.0,-999.0,41,-99.99,,,0.00,weatherlink.com 1.10,2013-04-27 11:40:00,
2013-04-27 05:55:00,43.7,18.0,30.19,SW,219,0.0,-999.0,35,-99.99,,,0.00,weatherlink.com 1.10,2013-04-27 11:55:00,
2013-04-27 06:10:00,47.0,16.0,30.19,West,276,10.0,-999.0,29,-99.99,,,0.00,weatherlink.com 1.10,2013-04-27 12:10:00,
2013-04-27 06:25:00,51.4,15.0,30.19,WNW,292,11.0,-999.0,23,-99.99,,,0.00,weatherlink.com 1.10,2013-04-27 12:25:00,
2013-04-27 06:40:00,53.1,14.0,30.19,WNW,296,8.0,-999.0,21,-99.99,,,0.00,weatherlink.com 1.10,2013-04-27 12:40:00,
2013-04-27 06:55:00,54.4,15.0,30.19,WNW,284,11.0,-999.0,21,-99.99,,,0.00,weatherlink.com 1.10,2013-04-27 12:55:00,
2013-04-27 07:10:00,55.1,15.0,30.19,WNW,299,16.0,-999.0,20,-99.99,,,0.00,weatherlink.com 1.10,2013-04-27 13:10:00,
2013-04-27 07:25:00,56.9,15.0,30.19,NW,310,9.0,-999.0,19,-99.99,,,0.00,weatherlink.com 1.10,2013-04-27 13:25:00,
2013-04-27 07:40:00,58.2,15.0,30.19,West,271,6.0,-999.0,18,-99.99,,,0.00,weatherlink.com 1.10,2013-04-27 13:40:00,
2013-04-27 07:55:00,58.9,16.0,30.19,WSW,256,7.0,-999.0,19,-99.99,,,0.00,weatherlink.com 1.10,2013-04-27 13:55:00,
2013-04-27 08:10:00,59.9,16.0,30.19,WSW,248,6.0,-999.0,18,-99.99,,,0.00,weatherlink.com 1.10,2013-04-27 14:10:00,
2013-04-27 08:25:00,60.7,14.0,30.20,WNW,300,16.0,-999.0,16,-99.99,,,0.00,weatherlink.com 1.10,2013-04-27 14:25:00,
2013-04-27 08:40:00,59.2,21.0,30.20,ENE,57,10.0,-999.0,23,-99.99,,,0.00,weatherlink.com 1.10,2013-04-27 14:40:00,
2013-04-27 08:55:00,58.9,19.0,30.20,ENE,61,7.0,-999.0,21,-99.99,,,0.00,weatherlink.com 1.10,2013-04-27 14:55:00,
2013-04-27 09:10:00,59.5,19.0,30.20,ENE,68,6.0,-999.0,21,-99.99,,,0.00,weatherlink.com 1.10,2013-04-27 15:10:00,
2013-04-27 09:25:00,60.5,21.0,30.19,ENE,59,5.0,-999.0,22,-99.99,,,0.00,weatherlink.com 1.10,2013-04-27 15:25:00,
2013-04-27 09:40:00,61.3,23.0,30.19,ENE,57,5.0,-999.0,23,-99.99,,,0.00,weatherlink.com 1.10,2013-04-27 15:40:00,
2013-04-27 09:55:00,62.6,24.0,30.19,East,82,2.0,-999.0,23,-99.99,,,0.00,weatherlink.com 1.10,2013-04-27 15:55:00,
2013-04-27 10:10:00,64.0,24.0,30.19,East,97,3.0,-999.0,22,-99.99,,,0.00,weatherlink.com 1.10,2013-04-27 16:10:00,
2013-04-27 10:25:00,65.0,20.0,30.19,ENE,60,4.0,-999.0,18,-99.99,,,0.00,weatherlink.com 1.10,2013-04-27 16:25:00,
2013-04-27 10:40:00,65.8,24.0,30.19,East,83,4.0,-999.0,20,-99.99,,,0.00,weatherlink.com 1.10,2013-04-27 16:40:00,
2013-04-27 10:55:00,67.4,22.0,30.19,East,86,4.0,-999.0,18,-99.99,,,0.00,weatherlink.com 1.10,2013-04-27 16:55:00,
2013-04-27 11:10:00,67.7,18.0,30.19,North,11,10.0,-999.0,15,-99.99,,,0.00,weatherlink.com 1.10,2013-04-27 17:10:00,
2013-04-27 11:25:00,67.0,18.0,30.19,North,11,6.0,-999.0,15,-99.99,,,0.00,weatherlink.com 1.10,2013-04-27 17:25:00,
2013-04-27 11:40:00,67.3,21.0,30.18,North,355,1.0,-999.0,17,-99.99,,,0.00,weatherlink.com 1.10,2013-04-27 17:40:00,
2013-04-27 11:55:00,68.7,21.0,30.18,ENE,74,9.0,-999.0,16,-99.99,,,0.00,weatherlink.com 1.10,2013-04-27 17:55:00,
2013-04-27 12:10:00,69.9,22.0,30.18,SSE,155,5.0,-999.0,16,-99.99,,,0.00,weatherlink.com 1.10,2013-04-27 18:10:00,
2013-04-27 12:25:00,69.8,20.0,30.18,East,97,1.0,-999.0,15,-99.99,,,0.00,weatherlink.com 1.10,2013-04-27 18:25:00,
2013-04-27 12:40:00,70.6,22.0,30.17,NE,40,11.0,-999.0,16,-99.99,,,0.00,weatherlink.com 1.10,2013-04-27 18:40:00,
2013-04-27 12:55:00,70.2,23.0,30.16,SE,128,2.0,-999.0,17,-99.99,,,0.00,weatherlink.com 1.10,2013-04-27 18:55:00,
2013-04-27 13:10:00,70.9,19.0,30.16,ENE,69,5.0,-999.0,14,-99.99,,,0.00,weatherlink.com 1.10,2013-04-27 19:10:00,
2013-04-27 13:25:00,71.3,24.0,30.16,SE,136,7.0,-999.0,17,-99.99,,,0.00,weatherlink.com 1.10,2013-04-27 19:25:00,
2013-04-27 13:40:00,72.0,20.0,30.16,SSE,167,3.0,-999.0,14,-99.99,,,0.00,weatherlink.com 1.10,2013-04-27 19:40:00,
2013-04-27 13:55:00,72.0,23.0,30.15,East,82,7.0,-999.0,16,-99.99,,,0.00,weatherlink.com 1.10,2013-04-27 19:55:00,
2013-04-27 14:10:00,72.5,27.0,30.15,South,180,5.0,-999.0,18,-99.99,,,0.00,weatherlink.com 1.10,2013-04-27 20:10:00,
2013-04-27 14:25:00,72.1,17.0,30.14,NE,38,10.0,-999.0,12,-99.99,,,0.00,weatherlink.com 1.10,2013-04-27 20:25:00,
2013-04-27 14:40:00,72.1,23.0,30.13,SE,131,9.0,-999.0,16,-99.99,,,0.00,weatherlink.com 1.10,2013-04-27 20:40:00,
2013-04-27 14:55:00,72.3,19.0,30.13,North,5,1.0,-999.0,13,-99.99,,,0.00,weatherlink.com 1.10,2013-04-27 20:55:00,
2013-04-27 15:10:00,72.5,19.0,30.12,NE,43,10.0,-999.0,13,-99.99,,,0.00,weatherlink.com 1.10,2013-04-27 21:10:00,
2013-04-27 15:25:00,72.0,18.0,30.12,West,270,1.0,-999.0,13,-99.99,,,0.00,weatherlink.com 1.10,2013-04-27 21:25:00,
2013-04-27 15:40:00,72.4,25.0,30.11,WNW,295,4.0,-999.0,17,-99.99,,,0.00,weatherlink.com 1.10,2013-04-27 21:40:00,
2013-04-27 15:55:00,72.4,19.0,30.10,SW,226,6.0,-999.0,13,-99.99,,,0.00,weatherlink.com 1.10,2013-04-27 21:55:00,
2013-04-27 16:10:00,72.2,19.0,30.10,West,275,8.0,-999.0,13,-99.99,,,0.00,weatherlink.com 1.10,2013-04-27 22:10:00,
2013-04-27 16:25:00,72.7,15.0,30.09,SW,232,3.0,-999.0,11,-99.99,,,0.00,weatherlink.com 1.10,2013-04-27 22:25:00,
2013-04-27 16:41:00,72.7,17.0,30.09,West,263,7.0,-999.0,12,-99.99,,,0.00,weatherlink.com 1.10,2013-04-27 22:41:00,
2013-04-27 16:56:00,72.9,17.0,30.09,SW,219,14.0,-999.0,12,-99.99,,,0.00,weatherlink.com 1.10,2013-04-27 22:56:00,
2013-04-27 17:10:00,72.5,19.0,30.09,WNW,285,8.0,-999.0,13,-99.99,,,0.00,weatherlink.com 1.10,2013-04-27 23:10:00,
2013-04-27 17:25:00,72.4,17.0,30.08,West,281,11.0,-999.0,12,-99.99,,,0.00,weatherlink.com 1.10,2013-04-27 23:25:00,
2013-04-27 17:40:00,71.6,14.0,30.08,West,260,9.0,-999.0,11,-99.99,,,0.00,weatherlink.com 1.10,2013-04-27 23:40:00,
2013-04-27 17:55:00,71.2,14.0,30.09,WSW,242,8.0,-999.0,11,-99.99,,,0.00,weatherlink.com 1.10,2013-04-27 23:55:00,
2013-04-27 18:10:00,71.0,16.0,30.09,West,269,10.0,-999.0,12,-99.99,,,0.00,weatherlink.com 1.10,2013-04-28 00:10:00,
2013-04-27 18:25:00,70.4,13.0,30.09,West,275,9.0,-999.0,11,-99.99,,,0.00,weatherlink.com 1.10,2013-04-28 00:25:00,
2013-04-27 18:40:00,70.0,15.0,30.09,West,281,13.0,-999.0,12,-99.99,,,0.00,weatherlink.com 1.10,2013-04-28 00:40:00,
2013-04-27 18:55:00,69.2,14.0,30.09,West,267,11.0,-999.0,12,-99.99,,,0.00,weatherlink.com 1.10,2013-04-28 00:55:00,
2013-04-27 19:10:00,68.5,16.0,30.09,West,277,9.0,-999.0,13,-99.99,,,0.00,weatherlink.com 1.10,2013-04-28 01:10:00,
2013-04-27 19:25:00,67.2,13.0,30.09,WSW,258,8.0,-999.0,12,-99.99,,,0.00,weatherlink.com 1.10,2013-04-28 01:25:00,
2013-04-27 19:40:00,65.6,15.0,30.09,WNW,294,6.0,-999.0,14,-99.99,,,0.00,weatherlink.com 1.10,2013-04-28 01:40:00,
2013-04-27 19:55:00,64.1,17.0,30.10,WNW,300,10.0,-999.0,16,-99.99,,,0.00,weatherlink.com 1.10,2013-04-28 01:55:00,
2013-04-27 20:10:00,62.4,17.0,30.10,WNW,292,7.0,-999.0,17,-99.99,,,0.00,weatherlink.com 1.10,2013-04-28 02:10:00,
2013-04-27 20:25:00,61.8,18.0,30.10,WNW,288,10.0,-999.0,18,-99.99,,,0.00,weatherlink.com 1.10,2013-04-28 02:25:00,
2013-04-27 20:40:00,61.6,17.0,30.10,WNW,284,9.0,-999.0,18,-99.99,,,0.00,weatherlink.com 1.10,2013-04-28 02:40:00,
2013-04-27 20:55:00,61.6,17.0,30.11,WNW,296,7.0,-999.0,18,-99.99,,,0.00,weatherlink.com 1.10,2013-04-28 02:55:00,
2013-04-27 21:10:00,61.6,17.0,30.11,WNW,296,7.0,-999.0,18,-99.99,,,0.00,weatherlink.com 1.10,2013-04-28 03:10:00,
2013-04-27 21:25:00,61.4,16.0,30.11,WNW,302,11.0,-999.0,17,-99.99,,,0.00,weatherlink.com 1.10,2013-04-28 03:25:00,
2013-04-27 21:40:00,60.9,17.0,30.11,WNW,294,11.0,-999.0,18,-99.99,,,0.00,weatherlink.com 1.10,2013-04-28 03:40:00,
2013-04-27 21:55:00,61.1,16.0,30.11,NW,309,9.0,-999.0,17,-99.99,,,0.00,weatherlink.com 1.10,2013-04-28 03:55:00,
2013-04-27 22:10:00,60.2,16.0,30.11,NW,304,6.0,-999.0,18,-99.99,,,0.00,weatherlink.com 1.10,2013-04-28 04:10:00,
2013-04-27 22:25:00,60.7,17.0,30.11,West,275,7.0,-999.0,18,-99.99,,,0.00,weatherlink.com 1.10,2013-04-28 04:25:00,
2013-04-27 22:40:00,61.1,17.0,30.11,WNW,287,14.0,-999.0,18,-99.99,,,0.00,weatherlink.com 1.10,2013-04-28 04:40:00,
2013-04-27 22:55:00,61.0,17.0,30.11,West,265,10.0,-999.0,18,-99.99,,,0.00,weatherlink.com 1.10,2013-04-28 04:55:00,
2013-04-27 23:10:00,61.1,18.0,30.10,WNW,290,16.0,-999.0,19,-99.99,,,0.00,weatherlink.com 1.10,2013-04-28 05:10:00,
2013-04-27 23:25:00,61.1,17.0,30.10,WNW,302,10.0,-999.0,18,-99.99,,,0.00,weatherlink.com 1.10,2013-04-28 05:25:00,
2013-04-27 23:40:00,60.2,18.0,30.09,WNW,298,6.0,-999.0,19,-99.99,,,0.00,weatherlink.com 1.10,2013-04-28 05:40:00,
2013-04-27 23:55:00,59.8,18.0,30.09,WNW,299,5.0,-999.0,20,-99.99,,,0.00,weatherlink.com 1.10,2013-04-28 05:55:00,